Time,TemperatureF,DewpointF,PressureIn,WindDirection,WindDirectionDegrees,WindSpeedMPH,WindSpeedGustMPH,Humidity,HourlyPrecipIn,Conditions,Clouds,dailyrainin,SoftwareType,DateUTC
2013-01-12 00:00:00,18.4,-4.2,29.99,NNW,347,0.0,0.0,36,0.00,,,0.00,Wunderground v.1.15,2013-01-12 07:00:00,
2013-01-12 00:05:00,18.4,-4.2,29.99,NNW,347,0.0,0.0,36,0.00,,,0.00,Wunderground v.1.15,2013-01-12 07:05:00,
2013-01-12 00:15:00,17.7,-3.7,29.99,NNW,347,0.0,0.0,38,0.00,,,0.00,Wunderground v.1.15,2013-01-12 07:15:00,
2013-01-12 00:20:00,17.4,-3.9,30.00,NNW,347,0.0,0.0,38,0.00,,,0.00,Wunderground v.1.15,2013-01-12 07:20:00,
2013-01-12 00:25:00,16.8,-3.9,29.99,NNW,347,0.0,0.0,39,0.00,,,0.00,Wunderground v.1.15,2013-01-12 07:25:00,
2013-01-12 00:30:00,16.9,-3.3,30.00,NNW,347,0.0,0.0,40,0.00,,,0.00,Wunderground v.1.15,2013-01-12 07:30:00,
2013-01-12 00:35:00,17.1,-3.6,30.00,NNW,347,0.0,0.0,39,0.00,,,0.00,Wunderground v.1.15,2013-01-12 07:35:00,
2013-01-12 00:45:00,16.6,-4.1,30.00,NNW,347,0.0,1.0,39,0.00,,,0.00,Wunderground v.1.15,2013-01-12 07:45:00,
2013-01-12 00:50:00,16.7,-3.5,30.00,NNW,347,0.0,0.0,40,0.00,,,0.00,Wunderground v.1.15,2013-01-12 07:50:00,
2013-01-12 01:00:00,16.2,-3.9,30.00,NNW,347,0.0,0.0,40,0.00,,,0.00,Wunderground v.1.15,2013-01-12 08:00:00,
2013-01-12 01:05:00,15.7,-3.4,30.00,NNW,347,0.0,0.0,42,0.00,,,0.00,Wunderground v.1.15,2013-01-12 08:05:00,
2013-01-12 01:15:00,15.8,-3.8,30.00,NNW,347,0.0,0.0,41,0.00,,,0.00,Wunderground v.1.15,2013-01-12 08:15:00,
2013-01-12 01:20:00,15.7,-4.4,30.00,NNW,347,0.0,0.0,40,0.00,,,0.00,Wunderground v.1.15,2013-01-12 08:20:00,
2013-01-12 01:25:00,14.9,-4.6,30.00,NNW,347,0.0,0.0,41,0.00,,,0.00,Wunderground v.1.15,2013-01-12 08:25:00,
2013-01-12 01:30:00,14.2,-4.2,30.00,NNW,347,0.0,0.0,43,0.00,,,0.00,Wunderground v.1.15,2013-01-12 08:30:00,
2013-01-12 01:35:00,13.3,-2.8,29.99,NNW,347,0.0,0.0,48,0.00,,,0.00,Wunderground v.1.15,2013-01-12 08:35:00,
2013-01-12 01:40:00,13.1,-2.9,29.99,NNW,347,0.0,0.0,48,0.00,,,0.00,Wunderground v.1.15,2013-01-12 08:40:00,
2013-01-12 01:50:00,13.5,-3.0,29.99,NNW,347,0.0,0.0,47,0.00,,,0.00,Wunderground v.1.15,2013-01-12 08:50:00,
2013-01-12 02:00:00,13.2,-1.2,29.99,NNW,347,0.0,0.0,52,0.00,,,0.00,Wunderground v.1.15,2013-01-12 09:00:00,
2013-01-12 02:05:00,13.1,-1.3,29.99,NNW,347,0.0,0.0,52,0.00,,,0.00,Wunderground v.1.15,2013-01-12 09:05:00,
2013-01-12 02:15:00,12.6,-1.7,29.99,NNW,347,0.0,0.0,52,0.00,,,0.00,Wunderground v.1.15,2013-01-12 09:15:00,
2013-01-12 02:25:00,12.3,-1.2,30.00,NNW,347,0.0,0.0,54,0.00,,,0.00,Wunderground v.1.15,2013-01-12 09:25:00,
2013-01-12 02:30:00,12.4,-1.5,30.00,NNW,347,0.0,0.0,53,0.00,,,0.00,Wunderground v.1.15,2013-01-12 09:30:00,
2013-01-12 02:35:00,12.0,-2.3,30.00,NNW,347,0.0,0.0,52,0.00,,,0.00,Wunderground v.1.15,2013-01-12 09:35:00,
2013-01-12 02:40:00,11.4,-2.8,30.00,NNW,347,0.0,0.0,52,0.00,,,0.00,Wunderground v.1.15,2013-01-12 09:40:00,
2013-01-12 02:50:00,10.9,-3.3,30.00,NNW,347,0.0,0.0,52,0.00,,,0.00,Wunderground v.1.15,2013-01-12 09:50:00,
2013-01-12 03:00:00,10.2,-2.8,30.01,NNW,347,0.0,0.0,55,0.00,,,0.00,Wunderground v.1.15,2013-01-12 10:00:00,
2013-01-12 03:05:00,10.1,-1.8,30.00,NNW,347,0.0,0.0,58,0.00,,,0.00,Wunderground v.1.15,2013-01-12 10:05:00,
2013-01-12 03:15:00,9.9,-2.7,30.01,NNW,347,0.0,0.0,56,0.00,,,0.00,Wunderground v.1.15,2013-01-12 10:15:00,
2013-01-12 03:20:00,10.0,-3.0,30.00,NNW,347,0.0,0.0,55,0.00,,,0.00,Wunderground v.1.15,2013-01-12 10:20:00,
2013-01-12 03:25:00,9.8,-2.0,30.00,NNW,347,0.0,0.0,58,0.00,,,0.00,Wunderground v.1.15,2013-01-12 10:25:00,
2013-01-12 03:35:00,9.3,-0.8,30.00,NNW,347,0.0,0.0,63,0.00,,,0.00,Wunderground v.1.15,2013-01-12 10:35:00,
2013-01-12 03:40:00,9.1,-0.6,30.00,NNW,347,0.0,0.0,64,0.00,,,0.00,Wunderground v.1.15,2013-01-12 10:40:00,
2013-01-12 03:45:00,9.2,-0.5,30.00,NNW,347,0.0,0.0,64,0.00,,,0.00,Wunderground v.1.15,2013-01-12 10:45:00,
2013-01-12 03:55:00,9.4,-1.0,30.00,NNW,347,0.0,0.0,62,0.00,,,0.00,Wunderground v.1.15,2013-01-12 10:55:00,
2013-01-12 04:00:00,9.4,-1.0,30.00,NNW,347,0.0,0.0,62,0.00,,,0.00,Wunderground v.1.15,2013-01-12 11:00:00,
2013-01-12 04:05:00,8.7,-2.0,30.00,NNW,348,0.0,0.0,61,0.00,,,0.00,Wunderground v.1.15,2013-01-12 11:05:00,
2013-01-12 04:15:00,7.7,-1.3,30.00,NNW,348,0.0,0.0,66,0.00,,,0.00,Wunderground v.1.15,2013-01-12 11:15:00,
2013-01-12 04:20:00,7.5,-1.2,30.00,NNW,347,0.0,0.0,67,0.00,,,0.00,Wunderground v.1.15,2013-01-12 11:20:00,
2013-01-12 04:25:00,7.2,-1.8,30.00,NNW,347,0.0,0.0,66,0.00,,,0.00,Wunderground v.1.15,2013-01-12 11:25:00,
2013-01-12 04:30:00,7.1,-1.9,30.00,NNW,347,0.0,0.0,66,0.00,,,0.00,Wunderground v.1.15,2013-01-12 11:30:00,
2013-01-12 04:40:00,7.1,-1.9,30.00,NNW,348,0.0,0.0,66,0.00,,,0.00,Wunderground v.1.15,2013-01-12 11:40:00,
2013-01-12 04:45:00,7.4,-1.9,30.00,NNW,347,0.0,0.0,65,0.00,,,0.00,Wunderground v.1.15,2013-01-12 11:45:00,
2013-01-12 04:55:00,7.4,-2.9,30.00,NNW,347,0.0,0.0,62,0.00,,,0.00,Wunderground v.1.15,2013-01-12 11:55:00,
2013-01-12 05:00:00,6.9,-2.7,30.00,NNW,347,0.0,0.0,64,0.00,,,0.00,Wunderground v.1.15,2013-01-12 12:00:00,
2013-01-12 05:05:00,6.6,-3.0,30.00,NNW,347,0.0,0.0,64,0.00,,,0.00,Wunderground v.1.15,2013-01-12 12:05:00,
2013-01-12 05:15:00,6.3,-3.6,30.01,NNW,348,0.0,0.0,63,0.00,,,0.00,Wunderground v.1.15,2013-01-12 12:15:00,
2013-01-12 05:20:00,6.4,-3.2,30.01,NNW,347,0.0,0.0,64,0.00,,,0.00,Wunderground v.1.15,2013-01-12 12:20:00,
2013-01-12 05:25:00,6.6,-3.0,30.02,NNW,347,0.0,0.0,64,0.00,,,0.00,Wunderground v.1.15,2013-01-12 12:25:00,
2013-01-12 05:30:00,6.6,-3.0,30.02,NNW,347,0.0,0.0,64,0.00,,,0.00,Wunderground v.1.15,2013-01-12 12:30:00,
2013-01-12 05:35:00,6.4,-3.2,30.02,NNW,347,0.0,0.0,64,0.00,,,0.00,Wunderground v.1.15,2013-01-12 12:35:00,
2013-01-12 05:45:00,6.3,-3.3,30.03,NNW,347,0.0,0.0,64,0.00,,,0.00,Wunderground v.1.15,2013-01-12 12:45:00,
2013-01-12 05:55:00,6.0,-2.9,30.04,NNW,347,0.0,0.0,66,0.00,,,0.00,Wunderground v.1.15,2013-01-12 12:55:00,
2013-01-12 06:00:00,5.8,-3.4,30.04,NNW,347,0.0,0.0,65,0.00,,,0.00,Wunderground v.1.15,2013-01-12 13:00:00,
2013-01-12 06:05:00,6.2,-2.4,30.05,NNW,347,0.0,0.0,67,0.00,,,0.00,Wunderground v.1.15,2013-01-12 13:05:00,
2013-01-12 06:15:00,7.0,-2.0,30.05,NNW,347,0.0,0.0,66,0.00,,,0.00,Wunderground v.1.15,2013-01-12 13:15:00,
2013-01-12 06:25:00,6.9,-2.4,30.06,NNW,347,0.0,0.0,65,0.00,,,0.00,Wunderground v.1.15,2013-01-12 13:25:00,
2013-01-12 06:30:00,6.7,-2.6,30.06,NNW,347,0.0,0.0,65,0.00,,,0.00,Wunderground v.1.15,2013-01-12 13:30:00,
2013-01-12 06:35:00,6.7,-2.6,30.07,NNW,347,0.0,0.0,65,0.00,,,0.00,Wunderground v.1.15,2013-01-12 13:35:00,
2013-01-12 06:45:00,6.8,-2.8,30.07,NNW,347,0.0,0.0,64,0.00,,,0.00,Wunderground v.1.15,2013-01-12 13:45:00,
2013-01-12 06:50:00,6.9,-2.7,30.07,NNW,347,0.0,0.0,64,0.00,,,0.00,Wunderground v.1.15,2013-01-12 13:50:00,
2013-01-12 07:00:00,6.8,-3.1,30.08,NNW,347,0.0,0.0,63,0.00,,,0.00,Wunderground v.1.15,2013-01-12 14:00:00,
2013-01-12 07:05:00,6.8,-3.1,30.08,NNW,347,0.0,0.0,63,0.00,,,0.00,Wunderground v.1.15,2013-01-12 14:05:00,
2013-01-12 07:15:00,6.7,-3.6,30.09,NNW,347,0.0,0.0,62,0.00,,,0.00,Wunderground v.1.15,2013-01-12 14:15:00,
2013-01-12 07:20:00,6.7,-3.2,30.09,NNW,347,0.0,0.0,63,0.00,,,0.00,Wunderground v.1.15,2013-01-12 14:20:00,
2013-01-12 07:30:00,6.7,-3.6,30.10,NNW,347,0.0,0.0,62,0.00,,,0.00,Wunderground v.1.15,2013-01-12 14:30:00,
2013-01-12 07:40:00,7.6,-2.7,30.10,NNW,347,0.0,0.0,62,0.00,,,0.00,Wunderground v.1.15,2013-01-12 14:40:00,
2013-01-12 07:45:00,8.0,-2.7,30.10,NNW,347,0.0,0.0,61,0.00,,,0.00,Wunderground v.1.15,2013-01-12 14:45:00,
2013-01-12 07:50:00,8.1,-2.6,30.10,NNW,347,0.0,0.0,61,0.00,,,0.00,Wunderground v.1.15,2013-01-12 14:50:00,
2013-01-12 07:55:00,8.5,-2.6,30.11,NNW,347,0.0,0.0,60,0.00,,,0.00,Wunderground v.1.15,2013-01-12 14:55:00,
2013-01-12 08:05:00,9.5,-1.6,30.12,NNW,347,0.0,0.0,60,0.00,,,0.00,Wunderground v.1.15,2013-01-12 15:05:00,
2013-01-12 08:15:00,10.9,-1.4,30.12,NNW,347,0.0,0.0,57,0.00,,,0.00,Wunderground v.1.15,2013-01-12 15:15:00,
2013-01-12 08:20:00,11.9,-1.2,30.12,NNW,348,0.0,0.0,55,0.00,,,0.00,Wunderground v.1.15,2013-01-12 15:20:00,
2013-01-12 08:30:00,13.0,-1.4,30.13,NNW,347,0.0,0.0,52,0.00,,,0.00,Wunderground v.1.15,2013-01-12 15:30:00,
2013-01-12 08:40:00,14.2,-0.2,30.13,NNW,347,0.0,0.0,52,0.00,,,0.00,Wunderground v.1.15,2013-01-12 15:40:00,
2013-01-12 08:45:00,14.5,-0.8,30.14,NNW,347,0.0,0.0,50,0.00,,,0.00,Wunderground v.1.15,2013-01-12 15:45:00,
2013-01-12 08:50:00,15.1,-0.7,30.13,NNW,347,0.0,0.0,49,0.00,,,0.00,Wunderground v.1.15,2013-01-12 15:50:00,
2013-01-12 08:55:00,15.4,-0.8,30.14,NNW,348,0.0,0.0,48,0.00,,,0.00,Wunderground v.1.15,2013-01-12 15:55:00,
2013-01-12 09:00:00,15.8,-0.5,30.14,NNW,347,0.0,0.0,48,0.00,,,0.00,Wunderground v.1.15,2013-01-12 16:00:00,
2013-01-12 09:05:00,16.1,-0.2,30.14,NNW,348,0.0,0.0,48,0.00,,,0.00,Wunderground v.1.15,2013-01-12 16:05:00,
2013-01-12 09:15:00,17.3,0.0,30.14,NNW,348,0.0,0.0,46,0.00,,,0.00,Wunderground v.1.15,2013-01-12 16:15:00,
2013-01-12 09:20:00,17.5,-0.3,30.14,NNW,348,1.0,2.0,45,0.00,,,0.00,Wunderground v.1.15,2013-01-12 16:20:00,
2013-01-12 09:30:00,18.9,0.1,30.15,North,11,1.0,2.0,43,0.00,,,0.00,Wunderground v.1.15,2013-01-12 16:30:00,
2013-01-12 09:35:00,18.9,0.1,30.14,North,360,0.0,3.0,43,0.00,,,0.00,Wunderground v.1.15,2013-01-12 16:35:00,
2013-01-12 09:40:00,19.7,0.3,30.14,North,10,1.0,1.0,42,0.00,,,0.00,Wunderground v.1.15,2013-01-12 16:40:00,
2013-01-12 09:50:00,21.3,0.7,30.14,North,10,1.0,1.0,40,0.00,,,0.00,Wunderground v.1.15,2013-01-12 16:50:00,
2013-01-12 09:55:00,22.0,0.2,30.14,ENE,71,0.0,1.0,38,0.00,,,0.00,Wunderground v.1.15,2013-01-12 16:55:00,
2013-01-12 10:00:00,22.6,1.3,30.13,NNE,27,0.0,0.0,39,0.00,,,0.00,Wunderground v.1.15,2013-01-12 17:00:00,
2013-01-12 10:05:00,23.1,0.6,30.13,NNE,20,1.0,1.0,37,0.00,,,0.00,Wunderground v.1.15,2013-01-12 17:05:00,
2013-01-12 10:15:00,24.0,0.9,30.13,NE,36,0.0,1.0,36,0.00,,,0.00,Wunderground v.1.15,2013-01-12 17:15:00,
2013-01-12 10:20:00,24.3,1.1,30.13,North,10,0.0,1.0,36,0.00,,,0.00,Wunderground v.1.15,2013-01-12 17:20:00,
2013-01-12 10:30:00,24.4,0.6,30.12,ESE,104,1.0,1.0,35,0.00,,,0.00,Wunderground v.1.15,2013-01-12 17:30:00,
2013-01-12 10:35:00,25.1,0.6,30.12,NNE,30,1.0,1.0,34,0.00,,,0.00,Wunderground v.1.15,2013-01-12 17:35:00,
2013-01-12 10:40:00,25.0,-0.1,30.12,North,355,1.0,1.0,33,0.00,,,0.00,Wunderground v.1.15,2013-01-12 17:40:00,
2013-01-12 10:45:00,25.2,0.7,30.12,NE,43,1.0,2.0,34,0.00,,,0.00,Wunderground v.1.15,2013-01-12 17:45:00,
2013-01-12 10:55:00,26.1,0.2,30.12,NNE,17,1.0,1.0,32,0.00,,,0.00,Wunderground v.1.15,2013-01-12 17:55:00,
2013-01-12 11:00:00,26.7,0.7,30.11,NE,41,0.0,0.0,32,0.00,,,0.00,Wunderground v.1.15,2013-01-12 18:00:00,
2013-01-12 11:05:00,27.5,1.4,30.11,East,97,0.0,0.0,32,0.00,,,0.00,Wunderground v.1.15,2013-01-12 18:05:00,
2013-01-12 11:15:00,27.8,1.0,30.10,ESE,105,0.0,1.0,31,0.00,,,0.00,Wunderground v.1.15,2013-01-12 18:15:00,
2013-01-12 11:25:00,27.3,-0.1,30.09,ESE,102,0.0,1.0,30,0.00,,,0.00,Wunderground v.1.15,2013-01-12 18:25:00,
2013-01-12 11:30:00,27.6,0.9,30.09,ESE,103,0.0,1.0,31,0.00,,,0.00,Wunderground v.1.15,2013-01-12 18:30:00,
2013-01-12 11:35:00,28.2,0.7,30.09,ESE,103,0.0,1.0,30,0.00,,,0.00,Wunderground v.1.15,2013-01-12 18:35:00,
2013-01-12 11:40:00,28.3,0.0,30.08,ESE,103,0.0,0.0,29,0.00,,,0.00,Wunderground v.1.15,2013-01-12 18:40:00,
2013-01-12 11:45:00,28.8,0.5,30.08,ESE,103,0.0,0.0,29,0.00,,,0.00,Wunderground v.1.15,2013-01-12 18:45:00,
2013-01-12 11:50:00,29.0,-0.1,30.08,ESE,103,0.0,0.0,28,0.00,,,0.00,Wunderground v.1.15,2013-01-12 18:50:00,
2013-01-12 11:55:00,29.1,-0.8,30.07,North,355,0.0,2.0,27,0.00,,,0.00,Wunderground v.1.15,2013-01-12 18:55:00,
2013-01-12 12:05:00,29.8,-0.2,30.06,North,11,1.0,1.0,27,0.00,,,0.00,Wunderground v.1.15,2013-01-12 19:05:00,
2013-01-12 12:15:00,30.0,-0.8,30.06,WNW,302,1.0,1.0,26,0.00,,,0.00,Wunderground v.1.15,2013-01-12 19:15:00,
2013-01-12 12:20:00,29.9,-1.7,30.05,WNW,302,0.0,0.0,25,0.00,,,0.00,Wunderground v.1.15,2013-01-12 19:20:00,
2013-01-12 12:25:00,29.8,-1.0,30.05,WNW,301,0.0,0.0,26,0.00,,,0.00,Wunderground v.1.15,2013-01-12 19:25:00,
2013-01-12 12:30:00,30.7,-0.2,30.05,WNW,295,0.0,0.0,26,0.00,,,0.00,Wunderground v.1.15,2013-01-12 19:30:00,
2013-01-12 12:40:00,31.3,-1.4,30.04,SSW,205,0.0,0.0,24,0.00,,,0.00,Wunderground v.1.15,2013-01-12 19:40:00,
2013-01-12 12:45:00,30.8,-1.8,30.04,SW,228,0.0,0.0,24,0.00,,,0.00,Wunderground v.1.15,2013-01-12 19:45:00,
2013-01-12 12:50:00,31.9,-0.9,30.04,South,188,1.0,1.0,24,0.00,,,0.00,Wunderground v.1.15,2013-01-12 19:50:00,
2013-01-12 12:55:00,32.1,-0.7,30.04,South,170,1.0,1.0,24,0.00,,,0.00,Wunderground v.1.15,2013-01-12 19:55:00,
2013-01-12 13:00:00,31.4,-2.2,30.04,SSE,159,0.0,4.0,23,0.00,,,0.00,Wunderground v.1.15,2013-01-12 20:00:00,
2013-01-12 13:05:00,31.8,-0.1,30.03,SSE,160,0.0,4.0,25,0.00,,,0.00,Wunderground v.1.15,2013-01-12 20:05:00,
2013-01-12 13:15:00,31.6,-1.1,30.03,SSW,192,0.0,0.0,24,0.00,,,0.00,Wunderground v.1.15,2013-01-12 20:15:00,
2013-01-12 13:20:00,32.2,-0.6,30.04,SSW,201,0.0,6.0,24,0.00,,,0.00,Wunderground v.1.15,2013-01-12 20:20:00,
2013-01-12 13:25:00,32.3,-0.5,30.03,North,11,1.0,6.0,24,0.00,,,0.00,Wunderground v.1.15,2013-01-12 20:25:00,
2013-01-12 13:30:00,32.2,-0.6,30.03,South,173,1.0,1.0,24,0.00,,,0.00,Wunderground v.1.15,2013-01-12 20:30:00,
2013-01-12 13:35:00,31.6,-2.0,30.03,South,185,0.0,1.0,23,0.00,,,0.00,Wunderground v.1.15,2013-01-12 20:35:00,
2013-01-12 13:45:00,32.1,-0.7,30.03,West,278,0.0,0.0,24,0.00,,,0.00,Wunderground v.1.15,2013-01-12 20:45:00,
2013-01-12 13:50:00,31.8,-1.0,30.02,West,277,0.0,0.0,24,0.00,,,0.00,Wunderground v.1.15,2013-01-12 20:50:00,
2013-01-12 13:55:00,32.1,-1.6,30.02,WSW,246,0.0,0.0,23,0.00,,,0.00,Wunderground v.1.15,2013-01-12 20:55:00,
2013-01-12 14:00:00,32.6,-3.1,30.03,NNW,334,1.0,5.0,21,0.00,,,0.00,Wunderground v.1.15,2013-01-12 21:00:00,
2013-01-12 14:05:00,33.3,-4.6,30.03,WNW,286,3.0,5.0,19,0.00,,,0.00,Wunderground v.1.15,2013-01-12 21:05:00,
2013-01-12 14:15:00,32.7,-5.1,30.03,NW,312,2.0,3.0,19,0.00,,,0.00,Wunderground v.1.15,2013-01-12 21:15:00,
2013-01-12 14:20:00,32.9,-4.9,30.04,West,279,2.0,2.0,19,0.00,,,0.00,Wunderground v.1.15,2013-01-12 21:20:00,
2013-01-12 14:25:00,32.8,-5.0,30.04,NW,317,2.0,2.0,19,0.00,,,0.00,Wunderground v.1.15,2013-01-12 21:25:00,
2013-01-12 14:30:00,32.6,-5.2,30.05,West,273,1.0,1.0,19,0.00,,,0.00,Wunderground v.1.15,2013-01-12 21:30:00,
2013-01-12 14:35:00,32.3,-4.4,30.05,WNW,294,1.0,1.0,20,0.00,,,0.00,Wunderground v.1.15,2013-01-12 21:35:00,
2013-01-12 14:40:00,32.5,-3.2,30.05,NW,309,1.0,1.0,21,0.00,,,0.00,Wunderground v.1.15,2013-01-12 21:40:00,
2013-01-12 14:45:00,32.5,-3.2,30.05,NW,309,0.0,1.0,21,0.00,,,0.00,Wunderground v.1.15,2013-01-12 21:45:00,
2013-01-12 14:55:00,32.8,-4.0,30.05,NW,320,1.0,1.0,20,0.00,,,0.00,Wunderground v.1.15,2013-01-12 21:55:00,
2013-01-12 15:00:00,32.5,-3.2,30.05,NW,319,1.0,1.0,21,0.00,,,0.00,Wunderground v.1.15,2013-01-12 22:00:00,
2013-01-12 15:05:00,32.1,-2.5,30.05,NW,311,1.0,1.0,22,0.00,,,0.00,Wunderground v.1.15,2013-01-12 22:05:00,
2013-01-12 15:15:00,31.9,-1.8,30.06,WNW,301,3.0,6.0,23,0.00,,,0.00,Wunderground v.1.15,2013-01-12 22:15:00,
2013-01-12 15:20:00,31.8,-1.9,30.06,North,355,4.0,11.0,23,0.00,,,0.00,Wunderground v.1.15,2013-01-12 22:20:00,
2013-01-12 15:30:00,31.5,-0.3,30.06,NNW,332,6.0,8.0,25,0.00,,,0.00,Wunderground v.1.15,2013-01-12 22:30:00,
2013-01-12 15:35:00,31.2,1.0,30.06,WNW,299,6.0,8.0,27,0.00,,,0.00,Wunderground v.1.15,2013-01-12 22:35:00,
2013-01-12 15:40:00,31.0,0.9,30.07,NNW,337,6.0,6.0,27,0.00,,,0.00,Wunderground v.1.15,2013-01-12 22:40:00,
2013-01-12 15:45:00,31.0,0.9,30.07,NW,319,5.0,6.0,27,0.00,,,0.00,Wunderground v.1.15,2013-01-12 22:45:00,
2013-01-12 15:50:00,30.8,0.7,30.07,WNW,303,4.0,4.0,27,0.00,,,0.00,Wunderground v.1.15,2013-01-12 22:50:00,
2013-01-12 16:00:00,30.6,1.3,30.07,North,355,4.0,7.0,28,0.00,,,0.00,Wunderground v.1.15,2013-01-12 23:00:00,
2013-01-12 16:05:00,30.4,0.3,30.08,NNW,336,6.0,7.0,27,0.00,,,0.00,Wunderground v.1.15,2013-01-12 23:05:00,
2013-01-12 16:15:00,30.0,-0.8,30.09,NNW,339,7.0,10.0,26,0.00,,,0.00,Wunderground v.1.15,2013-01-12 23:15:00,
2013-01-12 16:20:00,29.8,-1.8,30.09,WNW,302,7.0,11.0,25,0.00,,,0.00,Wunderground v.1.15,2013-01-12 23:20:00,
2013-01-12 16:25:00,29.7,-2.8,30.09,WNW,290,7.0,11.0,24,0.00,,,0.00,Wunderground v.1.15,2013-01-12 23:25:00,
2013-01-12 16:35:00,29.6,-2.8,30.09,NNW,333,6.0,7.0,24,0.00,,,0.00,Wunderground v.1.15,2013-01-12 23:35:00,
2013-01-12 16:40:00,29.6,-2.8,30.09,NW,322,4.0,8.0,24,0.00,,,0.00,Wunderground v.1.15,2013-01-12 23:40:00,
2013-01-12 16:45:00,29.5,-2.1,30.09,NW,326,5.0,8.0,25,0.00,,,0.00,Wunderground v.1.15,2013-01-12 23:45:00,
2013-01-12 16:50:00,29.3,-2.2,30.10,NW,325,7.0,7.0,25,0.00,,,0.00,Wunderground v.1.15,2013-01-12 23:50:00,
2013-01-12 16:55:00,29.2,-3.2,30.10,NNW,341,5.0,7.0,24,0.00,,,0.00,Wunderground v.1.15,2013-01-12 23:55:00,
2013-01-12 17:05:00,29.0,-4.2,30.10,NW,306,6.0,6.0,23,0.00,,,0.00,Wunderground v.1.15,2013-01-13 00:05:00,
2013-01-12 17:15:00,28.8,-3.5,30.10,NNW,338,6.0,6.0,24,0.00,,,0.00,Wunderground v.1.15,2013-01-13 00:15:00,
2013-01-12 17:20:00,28.6,-2.8,30.11,NW,323,6.0,10.0,25,0.00,,,0.00,Wunderground v.1.15,2013-01-13 00:20:00,
2013-01-12 17:25:00,28.4,-3.0,30.10,WNW,301,5.0,10.0,25,0.00,,,0.00,Wunderground v.1.15,2013-01-13 00:25:00,
2013-01-12 17:30:00,28.3,-4.0,30.11,NW,320,5.0,5.0,24,0.00,,,0.00,Wunderground v.1.15,2013-01-13 00:30:00,
2013-01-12 17:35:00,28.2,-4.0,30.11,NW,315,4.0,5.0,24,0.00,,,0.00,Wunderground v.1.15,2013-01-13 00:35:00,
2013-01-12 17:40:00,28.1,-5.0,30.11,North,360,3.0,3.0,23,0.00,,,0.00,Wunderground v.1.15,2013-01-13 00:40:00,
2013-01-12 17:50:00,27.9,-4.3,30.12,NNW,343,3.0,5.0,24,0.00,,,0.00,Wunderground v.1.15,2013-01-13 00:50:00,
2013-01-12 17:55:00,27.8,-6.2,30.12,NNE,23,3.0,5.0,22,0.00,,,0.00,Wunderground v.1.15,2013-01-13 00:55:00,
2013-01-12 18:00:00,27.7,-8.2,30.12,North,355,3.0,3.0,20,0.00,,,0.00,Wunderground v.1.15,2013-01-13 01:00:00,
2013-01-12 18:05:00,27.5,-9.5,30.12,NNE,20,3.0,3.0,19,0.00,,,0.00,Wunderground v.1.15,2013-01-13 01:05:00,
2013-01-12 18:15:00,27.2,-9.7,30.12,NNE,14,2.0,2.0,19,0.00,,,0.00,Wunderground v.1.15,2013-01-13 01:15:00,
2013-01-12 18:20:00,27.1,-9.8,30.13,North,360,2.0,2.0,19,0.00,,,0.00,Wunderground v.1.15,2013-01-13 01:20:00,
2013-01-12 18:25:00,27.0,-9.9,30.13,North,360,1.0,2.0,19,0.00,,,0.00,Wunderground v.1.15,2013-01-13 01:25:00,
2013-01-12 18:35:00,26.9,-8.9,30.13,North,355,1.0,1.0,20,0.00,,,0.00,Wunderground v.1.15,2013-01-13 01:35:00,
2013-01-12 18:40:00,26.7,-9.1,30.13,North,350,1.0,4.0,20,0.00,,,0.00,Wunderground v.1.15,2013-01-13 01:40:00,
2013-01-12 18:45:00,26.5,-9.2,30.13,NNW,341,1.0,5.0,20,0.00,,,0.00,Wunderground v.1.15,2013-01-13 01:45:00,
2013-01-12 18:55:00,26.2,-9.5,30.13,North,5,1.0,3.0,20,0.00,,,0.00,Wunderground v.1.15,2013-01-13 01:55:00,
2013-01-12 19:00:00,26.0,-9.7,30.14,NNW,340,1.0,1.0,20,0.00,,,0.00,Wunderground v.1.15,2013-01-13 02:00:00,
2013-01-12 19:05:00,25.8,-9.8,30.15,NNW,335,1.0,2.0,20,0.00,,,0.00,Wunderground v.1.15,2013-01-13 02:05:00,
2013-01-12 19:15:00,25.4,-8.2,30.15,NW,312,2.0,2.0,22,0.00,,,0.00,Wunderground v.1.15,2013-01-13 02:15:00,
2013-01-12 19:20:00,25.2,-7.5,30.15,NW,317,2.0,2.0,23,0.00,,,0.00,Wunderground v.1.15,2013-01-13 02:20:00,
2013-01-12 19:25:00,25.0,-6.8,30.15,NNW,338,2.0,2.0,24,0.00,,,0.00,Wunderground v.1.15,2013-01-13 02:25:00,
2013-01-12 19:30:00,24.7,-7.0,30.15,NNW,341,2.0,2.0,24,0.00,,,0.00,Wunderground v.1.15,2013-01-13 02:30:00,
2013-01-12 19:35:00,24.4,-6.5,30.15,North,350,1.0,4.0,25,0.00,,,0.00,Wunderground v.1.15,2013-01-13 02:35:00,
2013-01-12 19:40:00,24.2,-6.6,30.15,NNW,347,1.0,1.0,25,0.00,,,0.00,Wunderground v.1.15,2013-01-13 02:40:00,
2013-01-12 19:45:00,23.9,-6.9,30.15,North,9,1.0,1.0,25,0.00,,,0.00,Wunderground v.1.15,2013-01-13 02:45:00,
2013-01-12 19:50:00,23.8,-7.0,30.15,North,5,1.0,1.0,25,0.00,,,0.00,Wunderground v.1.15,2013-01-13 02:50:00,
2013-01-12 20:00:00,23.1,-6.8,30.15,North,5,0.0,2.0,26,0.00,,,0.00,Wunderground v.1.15,2013-01-13 03:00:00,
2013-01-12 20:10:00,22.6,-8.0,30.16,North,5,0.0,0.0,25,0.00,,,0.00,Wunderground v.1.15,2013-01-13 03:10:00,
2013-01-12 20:15:00,22.3,-7.5,30.16,North,5,0.0,0.0,26,0.00,,,0.00,Wunderground v.1.15,2013-01-13 03:15:00,
2013-01-12 20:20:00,21.7,-8.0,30.16,North,5,0.0,0.0,26,0.00,,,0.00,Wunderground v.1.15,2013-01-13 03:20:00,
2013-01-12 20:25:00,21.2,-7.6,30.16,North,5,0.0,0.0,27,0.00,,,0.00,Wunderground v.1.15,2013-01-13 03:25:00,
2013-01-12 20:35:00,20.7,-7.3,30.17,NNW,345,0.0,0.0,28,0.00,,,0.00,Wunderground v.1.15,2013-01-13 03:35:00,
2013-01-12 20:40:00,20.2,-7.8,30.17,NNW,345,0.0,0.0,28,0.00,,,0.00,Wunderground v.1.15,2013-01-13 03:40:00,
2013-01-12 20:45:00,19.4,-7.7,30.18,NNW,345,0.0,0.0,29,0.00,,,0.00,Wunderground v.1.15,2013-01-13 03:45:00,
2013-01-12 20:55:00,17.9,-5.2,30.18,NNW,345,0.0,0.0,35,0.00,,,0.00,Wunderground v.1.15,2013-01-13 03:55:00,
2013-01-12 21:00:00,17.3,-5.1,30.18,NNW,345,0.0,0.0,36,0.00,,,0.00,Wunderground v.1.15,2013-01-13 04:00:00,
2013-01-12 21:05:00,17.1,-5.9,30.18,NNW,345,0.0,0.0,35,0.00,,,0.00,Wunderground v.1.15,2013-01-13 04:05:00,
2013-01-12 21:15:00,17.2,-6.4,30.18,NNW,345,0.0,0.0,34,0.00,,,0.00,Wunderground v.1.15,2013-01-13 04:15:00,
2013-01-12 21:20:00,16.4,-7.1,30.18,NNW,345,0.0,0.0,34,0.00,,,0.00,Wunderground v.1.15,2013-01-13 04:20:00,
2013-01-12 21:25:00,15.4,-7.4,30.18,NNW,345,0.0,0.0,35,0.00,,,0.00,Wunderground v.1.15,2013-01-13 04:25:00,
2013-01-12 21:30:00,15.7,-7.2,30.18,NNW,345,0.0,0.0,35,0.00,,,0.00,Wunderground v.1.15,2013-01-13 04:30:00,
2013-01-12 21:35:00,15.7,-7.2,30.18,NNW,345,0.0,0.0,35,0.00,,,0.00,Wunderground v.1.15,2013-01-13 04:35:00,
2013-01-12 21:45:00,15.4,-7.4,30.19,NNW,345,0.0,0.0,35,0.00,,,0.00,Wunderground v.1.15,2013-01-13 04:45:00,
2013-01-12 21:55:00,15.0,-6.6,30.19,NNW,345,0.0,0.0,37,0.00,,,0.00,Wunderground v.1.15,2013-01-13 04:55:00,
2013-01-12 22:05:00,14.3,-5.1,30.20,NNW,345,0.0,0.0,41,0.00,,,0.00,Wunderground v.1.15,2013-01-13 05:05:00,
2013-01-12 22:15:00,13.2,-4.2,30.20,NNW,345,0.0,0.0,45,0.00,,,0.00,Wunderground v.1.15,2013-01-13 05:15:00,
2013-01-12 22:20:00,13.1,-4.3,30.20,NNW,345,0.0,0.0,45,0.00,,,0.00,Wunderground v.1.15,2013-01-13 05:20:00,
2013-01-12 22:25:00,13.2,-5.2,30.20,NNW,345,0.0,0.0,43,0.00,,,0.00,Wunderground v.1.15,2013-01-13 05:25:00,
2013-01-12 22:30:00,12.9,-5.9,30.21,NNW,345,0.0,0.0,42,0.00,,,0.00,Wunderground v.1.15,2013-01-13 05:30:00,
2013-01-12 22:40:00,12.5,-5.3,30.21,NNW,345,0.0,0.0,44,0.00,,,0.00,Wunderground v.1.15,2013-01-13 05:40:00,
2013-01-12 22:45:00,12.1,-5.2,30.21,NNW,345,0.0,0.0,45,0.00,,,0.00,Wunderground v.1.15,2013-01-13 05:45:00,
2013-01-12 22:50:00,12.0,-4.9,30.22,NNW,345,0.0,0.0,46,0.00,,,0.00,Wunderground v.1.15,2013-01-13 05:50:00,
2013-01-12 23:00:00,11.7,-5.6,30.22,NNW,345,0.0,0.0,45,0.00,,,0.00,Wunderground v.1.15,2013-01-13 06:00:00,
2013-01-12 23:05:00,11.8,-3.3,30.22,NNW,345,0.0,0.0,50,0.00,,,0.00,Wunderground v.1.15,2013-01-13 06:05:00,
2013-01-12 23:15:00,12.4,-2.7,30.22,NNW,345,0.0,0.0,50,0.00,,,0.00,Wunderground v.1.15,2013-01-13 06:15:00,
2013-01-12 23:20:00,12.3,-3.7,30.23,NNW,345,0.0,0.0,48,0.00,,,0.00,Wunderground v.1.15,2013-01-13 06:20:00,
2013-01-12 23:30:00,12.3,-3.7,30.23,NNW,345,0.0,0.0,48,0.00,,,0.00,Wunderground v.1.15,2013-01-13 06:30:00,
2013-01-12 23:35:00,12.4,-4.0,30.23,NNW,345,0.0,0.0,47,0.00,,,0.00,Wunderground v.1.15,2013-01-13 06:35:00,
2013-01-12 23:40:00,12.5,-3.9,30.24,NNW,345,0.0,0.0,47,0.00,,,0.00,Wunderground v.1.15,2013-01-13 06:40:00,
2013-01-12 23:45:00,12.6,-3.9,30.24,NNW,345,0.0,0.0,47,0.00,,,0.00,Wunderground v.1.15,2013-01-13 06:45:00,
2013-01-12 23:50:00,12.7,-4.2,30.24,NNW,345,0.0,0.0,46,0.00,,,0.00,Wunderground v.1.15,2013-01-13 06:50:00,
2013-01-12 23:55:00,12.0,-4.9,30.24,NNW,345,0.0,0.0,46,0.00,,,0.00,Wunderground v.1.15,2013-01-13 06:55:00,